#timestamp,LO_Frequency,Hit,StdDev 
1514404815.8,286047007.7,N
1514404835.6,286047010.3,N
1514404855.5,286047013.0,N
1514404875.3,286047013.9,N
1514404895.1,286047013.1,N
1514404915.9,286047017.7,N
1514404935.7,286047020.3,N
1514404955.5,286047024.8,N
1514404975.4,286047026.0,N
1514404995.2,286047024.9,N
1514405015.0,286047024.2,N
1514405015.9,286047024.2,N
1514405035.7,286047024.0,N
1514405055.6,286047023.0,N
1514405075.4,286047024.7,N
1514405095.2,286047023.8,N
1514405115.1,286047026.7,N
1514405116.0,286047026.7,N
1514405135.8,286047025.5,N
1514405155.6,286047026.2,N
1514405175.5,286047026.2,N
1514405195.3,286047027.9,N
1514405215.1,286047028.2,N
1514405235.9,286047028.1,N
1514405255.7,286047028.7,N
1514405275.5,286047034.4,Y
1514405295.4,286047017.1,P
1514405315.2,286047016.3,P
1514405335.0,286047018.6,P
1514405335.9,286047018.6,Y
1514405355.8,286046998.9,P
1514405375.6,286046995.4,N
1514405395.4,286046994.9,N
1514405415.3,286046996.0,N
1514405435.1,286046993.3,N
1514405436.0,286046993.3,N
1514405455.8,286046992.9,N
1514405475.7,286046992.3,N
1514405495.5,286046991.2,N
1514405515.3,286046991.9,N
1514405535.2,286046988.9,N
1514405555.9,286046993.2,N
1514405575.7,286046990.2,N
1514405595.5,286046993.7,N
1514405615.4,286046990.8,N
1514405635.2,286046989.8,N
1514405655.0,286046987.1,N
1514405655.9,286046987.1,N
1514405675.8,286046987.4,N
1514405695.6,286046988.4,N
1514405715.4,286046991.2,N
1514405735.3,286046992.0,N
1514405755.1,286046992.3,N
1514405756.0,286046992.3,N
1514405775.8,286046990.1,N
1514405795.7,286046993.0,N
1514405815.5,286046991.8,N
1514405835.3,286046999.3,N
1514405855.2,286046999.3,N
1514405875.9,286047000.7,N
1514405895.7,286047006.0,N
1514405915.5,286047004.6,N
1514405935.4,286047006.6,N
1514405955.2,286047012.6,N
1514405975.0,286047019.0,Y
1514405976.0,286047019.0,P
1514405995.8,286047028.5,N
1514406015.6,286047034.8,N
1514406035.4,286047035.5,N
1514406055.3,286047039.5,N
1514406075.1,286047039.7,N
1514406095.8,286047047.6,Y
1514406115.7,286047022.2,P
1514406135.5,286047022.7,P
1514406155.3,286047023.5,P
1514406175.2,286047025.1,Y
1514406195.0,286047003.8,P
1514406195.9,286047003.8,N
1514406215.7,286047004.7,N
1514406235.6,286047007.2,N
1514406255.4,286047004.8,N
1514406275.2,286047008.2,N
1514406295.1,286047007.7,N
1514406296.0,286047007.7,N
1514406315.8,286047010.7,N
1514406335.6,286047008.0,N
1514406355.5,286047010.0,N
1514406375.3,286047005.0,N
1514406395.1,286047004.5,N
1514406415.9,286047008.9,N
1514406435.7,286047008.9,N
1514406455.5,286047007.4,N
1514406475.4,286047005.5,N
1514406495.2,286047003.9,N
1514406515.0,286047003.4,N
1514406515.9,286047003.4,N
1514406535.7,286047004.3,N
1514406555.6,286046999.8,N
1514406575.4,286047000.7,N
1514406595.2,286046999.5,N
1514406615.1,286047003.9,N
1514406616.0,286047003.9,N
1514406635.8,286047004.0,N
1514406655.6,286046997.2,N
1514406675.5,286046995.3,N
1514406695.3,286046996.1,N
1514406715.1,286046990.5,N
1514406735.9,286046989.9,N
1514406755.7,286046985.7,N
1514406775.5,286046985.1,N
1514406795.4,286046981.2,N
1514406815.2,286046981.1,N
1514406835.0,286046982.2,N
1514406835.9,286046982.2,N
1514406855.8,286046979.2,N
1514406875.6,286046979.4,N
1514406895.4,286046975.3,N
1514406915.2,286046972.8,N
1514406935.1,286046973.5,N
1514406936.0,286046973.5,N
1514406955.8,286046972.7,N
1514406975.6,286046973.4,N
1514406995.5,286046973.7,N
1514407015.3,286046972.7,N
1514407035.1,286046969.8,N
1514407055.9,286046970.4,N
1514407075.7,286046967.6,N
1514407095.5,286046964.2,Y
1514407115.4,286046977.2,P
1514407135.2,286046969.7,P
1514407155.0,286046968.5,P
1514407155.9,286046968.5,Y
1514407175.8,286046989.6,P
1514407195.6,286046989.9,N
1514407215.4,286046982.5,N
1514407235.3,286046982.4,N
1514407255.1,286046983.6,N
1514407275.8,286046980.5,Y
1514407295.7,286046999.2,P
1514407315.5,286046996.1,N
1514407335.3,286046994.0,N
1514407355.2,286046997.8,N
1514407375.9,286046995.0,N
1514407395.7,286046993.8,N
1514407415.6,286046994.8,N
1514407435.4,286046990.4,N
1514407455.2,286046991.5,N
1514407475.1,286046990.5,N
1514407476.0,286046990.5,N
1514407495.8,286046991.7,N
1514407515.6,286046993.0,N
1514407535.5,286046988.5,Y
1514407555.3,286047000.8,P
1514407575.1,286047000.9,N
1514407595.9,286046999.5,N
1514407615.7,286046993.8,N
1514407635.5,286046992.4,N
1514407655.4,286046990.2,N
1514407675.2,286046991.1,N
1514407695.0,286046990.9,N
1514407695.9,286046990.9,N
1514407715.8,286046985.3,Y
1514407735.6,286046989.7,P
1514407755.4,286046990.1,P
1514407775.3,286046991.3,P
1514407795.1,286046987.9,Y
1514407796.0,286046987.9,P
1514407815.8,286046991.7,P
1514407835.7,286046993.1,P
1514407855.5,286046986.9,Y
1514407875.3,286046996.3,P
1514407895.2,286046990.5,P
1514407915.9,286046991.9,P
1514407935.7,286046994.6,N
1514407955.6,286046993.9,N
1514407975.4,286046991.7,Y
1514407995.2,286047000.4,P
1514408015.1,286047000.5,N
1514408016.0,286047000.5,N
1514408035.8,286047000.9,N
1514408055.6,286046998.2,N
1514408075.5,286047002.4,N
1514408095.3,286047000.5,N
1514408115.1,286046999.8,N
1514408135.8,286047001.2,N
1514408155.7,286047000.6,N
1514408175.5,286047000.4,N
1514408195.3,286047000.6,N
1514408215.2,286047001.8,N
1514408235.9,286047002.6,N
1514408255.7,286047004.0,N
1514408275.6,286047001.5,N
1514408295.4,286047001.6,N
1514408315.2,286047002.7,N
1514408335.1,286047000.2,N
1514408336.0,286047000.2,N
1514408355.8,286047000.0,N
1514408375.6,286047000.8,N
1514408395.5,286047001.7,N
